Orbital Elements at Epoch 2459200.5 (2020-Dec-17.0) TDB
Reference: JPL 20 (heliocentric ecliptic J2000)
Element | Value | Uncertainty (1-sigma) | Units |
e | .206803357536168 | 4.4358e-08 | |
a | 2.29532246835901 | 8.7102e-09 | au |
q | 1.820642075274162 | 1.0182e-07 | au |
i | 6.247937666104853 | 4.2663e-06 | deg |
node | 207.1224821397074 | 3.3337e-05 | deg |
peri | 142.8500729824429 | 3.4164e-05 | deg |
M | 286.1112920927683 | 9.2674e-06 | deg |
tp | 2459461.199116929316 (2021-Sep-03.69911693) | 3.3707e-05 | TDB |
period | 1270.176252268287 3.48 | 7.23e-06 1.979e-08 | d yr |
n | .2834252328030147 | 1.6133e-09 | deg/d |
Q | 2.770002861443858 | 1.0512e-08 | au |
|
| | Orbit Determination Parameters
Additional Information
|